Other Surface Observations
Issued by NWS

Current Version | Previous Version | Text Only | Print | Product List | Glossary On
Versions: 1 2 3 4 5 6 7 8 9 10 11 12 13 14 15 16 17 18 19 20 21 22 23 24 25 26 27 28 29 30 31 32 33 34 35 36 37 38 39 40 41 42 43 44 45 46 47 48 49 50
000
SXUS52 KTAE 281418
OSOTAE
OSOTAE
North Florida/South Alabama/Southwest Georgia Weather Roundup
National Weather Service Tallahassee Florida
900 AM EST FRI NOV 28 2014

Note: "fair" indicates few or no clouds below 12,000 feet with no
significant weather and/or obstructions to visibility.

!FLZ017-115-028-034-025-281500
...North Florida...

CITY           SKY/WX    TMP DP  RH WIND       PRES   REMARKS
TALLAHASSEE    MOSUNNY   43  28  55 N7        30.40S WCI  39
APALACHICOLA   SUNNY     44  31  60 NE13      30.41R WCI  38
PERRY          SUNNY     39  32  75 N7        30.41R WCI  34
CROSS CITY       N/A     42  31  64 NE14G20   30.38R WCI  35
JACKSONVILLE   SUNNY     41  32  70 N10       30.37R WCI  35
$$

!FLZ112-006-005-002-011-281500
...Florida Panhandle...

CITY           SKY/WX    TMP DP  RH WIND       PRES   REMARKS
MARIANNA       SUNNY     39  32  76 NE9       30.42R WCI  33
BONIFAY        FAIR      40  31  70 N7        30.44R WCI  35
PANAMA CITY NW FAIR      41  32  70 N8        30.40S WCI  36
TYNDALL AFB    SUNNY     41  32  68 NE10      30.43R WCI  35
TYND DRONE APT NOT AVBL
DE FUNIAK SPR  FAIR      39  30  69 NE8       30.42R WCI  34
EGLIN AFB      SUNNY     39  30  68 N12       30.41S WCI  32
DESTIN         SUNNY     41  32  70 NE9       30.42R WCI  35
HURLBURT       SUNNY     39  29  68 N3        30.42R
CRESTVIEW      SUNNY     39  31  72 NE6       30.43S WCI  35
PENSACOLA      SUNNY     40  30  67 NE8       30.42R WCI  34
$$

!ALZ063-066-281500
...South Alabama...

CITY           SKY/WX    TMP DP  RH WIND       PRES   REMARKS
DOTHAN         SUNNY     37  30  75 N7        30.45R WCI  32
OZARK CAIRNS   SUNNY     37  29  71 N8        30.42R WCI  31
FT RUCKER HELI SUNNY     37  30  75 N6        30.42R WCI  32
RUCKER HELI 3  FAIR      36  30  79 NE6       30.44R WCI  31
RUCKER HELI 2  FAIR      37  30  75 N5        30.42R WCI  33
FLORALA APT    SUNNY     38  31  76 NE7       30.44R WCI  33
ANDALUSIA      SUNNY     41  30  65 VRB5      30.43R WCI  38
TROY           SUNNY     37  30  75 NE6       30.43R WCI  32
EUFALA         FAIR      37  28  70 N5        30.42R WCI  33
MOBILE         SUNNY     39  31  72 NE8       30.44S WCI  33
$$

!GAZ120>161-281500
...Southwest and South Central Georgia...

CITY           SKY/WX    TMP DP  RH WIND       PRES   REMARKS
THOMASVILLE    FAIR      41  32  70 NE9       30.42R WCI  35
BAINBRIDGE     SUNNY     41  32  70 NE9       30.43R WCI  35
MOODY AFB      SUNNY     38  29  69 N10       30.40R WCI  31
VALDOSTA       SUNNY     39  29  67 N10       30.40R WCI  32
MOULTRIE       SUNNY     37  30  75 NE8       30.42R WCI  31
BLAKELY        SUNNY     37  32  81 NE3       30.44R
ALBANY         SUNNY     38  29  70 N6        30.44R WCI  33
TIFTON         FAIR      37  26  66 N6        30.40R WCI  32
FITZGERALD     FAIR      39  26  58 N9G16     30.43R WCI  33
CORDELE        FAIR      38  27  64 NE8       30.43R WCI  32
AMERICUS       FAIR      34  28  80 NE8       30.42S WCI  27
HOMERVILLE     FAIR      41  32  70 N7        30.41R WCI  36
$$

!GMZ750-755-770-775-281500
...Coastal and Buoy Obs...

STATION/POSITION TIME  TEMP    WIND        PRES    VSBY  WAVE
                       AIR SEA DIR/SP/G                  HT/PER
                 (UTC) (F)     (DEG/KT/KT) (MB)    (MI)  (FT/S)
KEATON BEACH     1400   41      30/ 10/ 13 1029.3R
CEDAR KEY        1400   42      30/ 10/ 13 1028.9R
C TOWER          1400   46      40/ 19/ 21 1029.2R
APALACHICOLA BUO 1400   53 69   40/ 17/ 21 1028.2R         6/ 6
PANAMA CITY BUOY 1325   54 75   50/ 16/ 19 1028.9R         6/ 6
MOBILE BUOY      1310   54 71   70/ 12/ 16 1030.1R         4/ 6
ORANGE BCH AL BU 1400   48 64   50/ 14/ 17 1029.6R         3/ 5
$$



USA.gov is the U.S. government's official web portal to all federal, state and local government web resources and services.